Location: Altleiningen
(49.5078°N, 8.0741°E)
Time: 05:22:54
(UTC+00:00)

Cosmos 1459 Rocket - Pass Details

Date: 14 June 2025
Orbit: 937 x 997 km, 83.0° (Epoch: 12 July)

Event Time Altitude Azimuth Distance (km) Brightness Sun altitude
Rises 20:34:00 0° 351° (N) 3,696 8.2 -7.6°
Reaches altitude 10° 20:36:32 10° 354° (N) 2,752 7.4 -7.8°
Maximum altitude 20:42:51 73° 79° (ENE) 1,040 4.1 -8.5°
Drops below altitude 10° 20:49:11 10° 164° (SSE) 2,758 5.8 -9.1°
Enters shadow 20:49:28 - 164° (SSE) 2,857 5.9 -9.1°
